When you browse on this site, cookies collect data to enhance your experience and personalize the content and advertising you see.
Visit our Privacy Policy to learn more. By continuing to use the site, you agree to this use of cookies and data.
  • In Denmark
  • List of Countries
  • For 7 days
  • Water Temperature
  • Weather Map
  • Weather Widgets
  • user-avatar
    Login

    Hourly Weather Veliko Tarnovo

    Today, 24 February, Monday

    Time Temperature Precipitation Wind Pressure Humidity
    00:00 +8°C° 0 mm 2 mps 738 mmHg 47%
    01:00 +8°C° 0 mm 2 mps 738 mmHg 46%
    02:00 +8°C° 0 mm 2 mps 736 mmHg 43%
    03:00 +8°C° 0 mm 2 mps 735 mmHg 46%
    04:00 +9°C° 0 mm 2 mps 735 mmHg 48%
    05:00 +10°C° 0 mm 1 mps 734 mmHg 50%
    06:00 +9°C° 0 mm 2 mps 734 mmHg 52%
    07:00 +9°C° 0 mm 3 mps 734 mmHg 55%
    08:00 +8°C° 0 mm 4 mps 733 mmHg 57%
    09:00 +9°C° 0 mm 5 mps 734 mmHg 58%
    10:00 +10°C° 0 mm 7 mps 734 mmHg 59%
    11:00 +11°C° 0 mm 8 mps 735 mmHg 60%
    12:00 +11°C° 0 mm 9 mps 735 mmHg 59%
    13:00 +11°C° 0 mm 10 mps 735 mmHg 57%
    14:00 +11°C° 0 mm 11 mps 736 mmHg 56%
    15:00 +9°C° 0 mm 10 mps 736 mmHg 51%
    16:00 +10°C° 0 mm 9 mps 737 mmHg 47%
    17:00 +10°C° 0 mm 8 mps 738 mmHg 42%
    18:00 +8°C° 0 mm 7 mps 739 mmHg 46%
    19:00 +6°C° 0 mm 7 mps 740 mmHg 49%
    20:00 +5°C° 0 mm 6 mps 741 mmHg 53%
    21:00 +5°C° 0 mm 5 mps 741 mmHg 56%
    22:00 +4°C° 0 mm 4 mps 742 mmHg 59%
    23:00 +5°C° 0 mm 2 mps 742 mmHg 62%

    Tomorrow, 25 February, Tuesday

    Time Temperature Precipitation Wind Pressure Humidity
    00:00 +4°C° 0 mm 2 mps 742 mmHg 61%
    01:00 +4°C° 0 mm 2 mps 742 mmHg 60%
    02:00 +5°C° 0 mm 1 mps 742 mmHg 59%
    03:00 +4°C° 0 mm 1 mps 741 mmHg 59%
    04:00 +4°C° 0 mm 1 mps 741 mmHg 58%
    05:00 +4°C° 0 mm 1 mps 740 mmHg 57%
    06:00 +4°C° 0 mm 1 mps 740 mmHg 57%
    07:00 +4°C° 0 mm 1 mps 740 mmHg 57%
    08:00 +4°C° 0 mm 1 mps 740 mmHg 57%
    09:00 +5°C° 0 mm 2 mps 740 mmHg 52%
    10:00 +8°C° 0 mm 2 mps 740 mmHg 47%
    11:00 +10°C° 0 mm 3 mps 739 mmHg 43%
    12:00 +11°C° 0 mm 3 mps 738 mmHg 43%
    13:00 +12°C° 0 mm 4 mps 738 mmHg 43%
    14:00 +13°C° 0 mm 4 mps 737 mmHg 44%
    15:00 +12°C° 0 mm 3 mps 736 mmHg 48%
    16:00 +12°C° 0 mm 3 mps 736 mmHg 51%
    17:00 +11°C° 0 mm 3 mps 735 mmHg 55%
    18:00 +10°C° 0 mm 2 mps 735 mmHg 59%
    19:00 +9°C° 0 mm 2 mps 735 mmHg 63%
    20:00 +8°C° 0 mm 2 mps 734 mmHg 67%
    21:00 +8°C° 0 mm 2 mps 734 mmHg 69%
    22:00 +7°C° 0 mm 2 mps 733 mmHg 70%
    23:00 +8°C° 0 mm 1 mps 733 mmHg 71%

    Day after tomorrow, 26 February, Wednesday

    Time Temperature Precipitation Wind Pressure Humidity
    00:00 +8°C° 0 mm 1 mps 732 mmHg 71%
    01:00 +8°C° 0 mm 1 mps 732 mmHg 71%
    02:00 +8°C° 0 mm 1 mps 732 mmHg 71%
    03:00 +8°C° 0 mm 1 mps 731 mmHg 71%
    04:00 +8°C° 0 mm 1 mps 731 mmHg 71%
    05:00 +8°C° 0 mm 1 mps 730 mmHg 70%
    06:00 +8°C° 0 mm 1 mps 730 mmHg 69%
    07:00 +8°C° 0 mm 1 mps 730 mmHg 69%
    08:00 +9°C° 0 mm 1 mps 730 mmHg 68%
    09:00 +11°C° 0 mm 1 mps 729 mmHg 62%
    10:00 +13°C° 0 mm 1 mps 729 mmHg 57%
    11:00 +15°C° 0 mm 1 mps 729 mmHg 51%
    12:00 +15°C° 0 mm 2 mps 728 mmHg 50%
    13:00 +16°C° 0 mm 3 mps 728 mmHg 49%
    14:00 +17°C° 0 mm 3 mps 727 mmHg 48%
    15:00 +16°C° 0 mm 3 mps 727 mmHg 52%
    16:00 +16°C° 0 mm 3 mps 726 mmHg 56%
    17:00 +15°C° 0 mm 2 mps 726 mmHg 59%
    18:00 +14°C° 0 mm 2 mps 726 mmHg 65%
    19:00 +12°C° 0 mm 3 mps 726 mmHg 70%
    20:00 +11°C° 0 mm 3 mps 726 mmHg 75%
    21:00 +10°C° 0 mm 3 mps 726 mmHg 75%
    22:00 +10°C° 0 mm 3 mps 726 mmHg 75%
    23:00 +10°C° 0 mm 3 mps 726 mmHg 75%

    27 February, Thursday

    Time Temperature Precipitation Wind Pressure Humidity
    00:00 +10°C° 0 mm 3 mps 726 mmHg 75%
    01:00 +9°C° 0 mm 3 mps 726 mmHg 74%
    02:00 +9°C° 0 mm 3 mps 726 mmHg 73%
    03:00 +9°C° 0 mm 2 mps 725 mmHg 74%
    04:00 +9°C° 0 mm 2 mps 725 mmHg 74%
    05:00 +8°C° 0 mm 2 mps 724 mmHg 75%
    06:00 +8°C° 0 mm 2 mps 724 mmHg 75%
    07:00 +8°C° 0 mm 2 mps 724 mmHg 75%
    08:00 +8°C° 0 mm 2 mps 724 mmHg 76%
    09:00 +9°C° 0.3 mm 3 mps 724 mmHg 76%
    10:00 +8°C° 0.3 mm 5 mps 724 mmHg 76%
    11:00 +8°C° 0.3 mm 6 mps 724 mmHg 76%
    12:00 +7°C° 1.1 mm 6 mps 725 mmHg 74%
    13:00 +5°C° 1.1 mm 6 mps 725 mmHg 72%
    14:00 +5°C° 1.1 mm 6 mps 725 mmHg 70%
    15:00 +4°C° 0.3 mm 7 mps 725 mmHg 69%
    16:00 +2°C° 0.3 mm 8 mps 726 mmHg 67%
    17:00 +2°C° 0.3 mm 8 mps 726 mmHg 66%
    18:00 +1°C° 0.2 mm 9 mps 727 mmHg 72%
    19:00 +1°C° 0.2 mm 9 mps 728 mmHg 77%
    20:00 0°C° 0.2 mm 9 mps 729 mmHg 83%
    21:00 0°C° 0.1 mm 9 mps 730 mmHg 77%
    22:00 0°C° 0.1 mm 9 mps 731 mmHg 72%
    23:00 0°C° 0.1 mm 8 mps 732 mmHg 67%

    28 February, Friday

    Time Temperature Precipitation Wind Pressure Humidity
    00:00 0°C° 0 mm 8 mps 733 mmHg 68%
    01:00 0°C° 0 mm 7 mps 733 mmHg 69%
    02:00 -1°C° 0 mm 6 mps 734 mmHg 69%
    03:00 0°C° 0 mm 5 mps 734 mmHg 70%
    04:00 0°C° 0 mm 4 mps 735 mmHg 71%
    05:00 +1°C° 0 mm 3 mps 735 mmHg 71%
    06:00 +1°C° 0 mm 3 mps 735 mmHg 69%
    07:00 +2°C° 0 mm 2 mps 736 mmHg 66%
    08:00 +2°C° 0 mm 2 mps 736 mmHg 64%
    09:00 +4°C° 0 mm 2 mps 736 mmHg 55%
    10:00 +6°C° 0 mm 2 mps 736 mmHg 46%
    11:00 +8°C° 0 mm 2 mps 736 mmHg 38%
    12:00 +9°C° 0 mm 3 mps 736 mmHg 35%
    13:00 +8°C° 0 mm 4 mps 735 mmHg 33%
    14:00 +9°C° 0 mm 5 mps 735 mmHg 31%
    15:00 +10°C° 0 mm 4 mps 735 mmHg 36%
    16:00 +8°C° 0 mm 4 mps 735 mmHg 42%
    17:00 +9°C° 0 mm 3 mps 734 mmHg 47%
    18:00 +7°C° 0.1 mm 4 mps 735 mmHg 58%
    19:00 +6°C° 0.1 mm 4 mps 735 mmHg 69%
    20:00 +5°C° 0.1 mm 4 mps 736 mmHg 79%
    21:00 +3°C° 0.1 mm 5 mps 736 mmHg 77%
    22:00 +3°C° 0.1 mm 6 mps 737 mmHg 74%
    23:00 +3°C° 0.1 mm 6 mps 737 mmHg 71%

    29 February, Saturday

    Time Temperature Precipitation Wind Pressure Humidity
    00:00 +2°C° 0 mm 6 mps 738 mmHg 71%
    01:00 +1°C° 0 mm 5 mps 738 mmHg 70%
    02:00 0°C° 0 mm 4 mps 739 mmHg 70%
    03:00 +1°C° 0 mm 3 mps 739 mmHg 72%
    04:00 0°C° 0 mm 3 mps 739 mmHg 74%
    05:00 +1°C° 0 mm 2 mps 739 mmHg 76%
    06:00 +2°C° 0 mm 1 mps 739 mmHg 73%
    07:00 +3°C° 0 mm 1 mps 739 mmHg 70%
    08:00 +3°C° 0 mm 1 mps 740 mmHg 68%
    09:00 +4°C° 0 mm 2 mps 740 mmHg 59%
    10:00 +6°C° 0 mm 2 mps 739 mmHg 50%
    11:00 +9°C° 0 mm 2 mps 739 mmHg 41%
    12:00 +10°C° 0 mm 3 mps 739 mmHg 41%
    13:00 +11°C° 0 mm 4 mps 738 mmHg 41%
    14:00 +11°C° 0 mm 4 mps 738 mmHg 42%
    15:00 +11°C° 0 mm 4 mps 737 mmHg 47%
    16:00 +10°C° 0 mm 4 mps 737 mmHg 53%
    17:00 +10°C° 0 mm 4 mps 736 mmHg 58%
    18:00 +9°C° 0 mm 3 mps 736 mmHg 63%
    19:00 +8°C° 0 mm 3 mps 736 mmHg 67%
    20:00 +7°C° 0 mm 3 mps 736 mmHg 72%
    21:00 +7°C° 0 mm 2 mps 736 mmHg 73%
    22:00 +7°C° 0 mm 2 mps 736 mmHg 74%
    23:00 +7°C° 0 mm 2 mps 735 mmHg 75%
    Show more